GW2672 Weather Reports


time (UTC)temp
C
wind
direction
speed
KPH
gust
KPH
rain 1hr
cm
rain 24hr
cm
rain mn
cm
humidity
%
barometer
mb
20260510203100 27 77 3.2 14.5 0.00 0.25 0.00 71 1015.5
20260510201601 27 0 0.0 6.4 0.00 0.25 0.00 68 1015.7
20260510200058 28 0 0.0 9.7 0.00 0.25 0.00 69 1015.8
20260510194601 27 182 1.6 6.4 0.00 0.25 0.00 73 1015.8
20260510193101 27 0 0.0 4.8 0.00 0.25 0.00 71 1016.0
20260510191606 27 24 3.2 8.0 0.00 0.25 0.00 71 1016.1
20260510190100 26 0 0.0 4.8 0.00 0.25 0.00 72 1016.2
20260510184554 26 96 1.6 6.4 0.00 0.25 0.00 74 1016.4
20260510183058 26 151 1.6 6.4 0.00 0.25 0.00 73 1016.5
20260510181606 26 88 1.6 8.0 0.00 0.25 0.00 73 1016.7
20260510180103 26 72 1.6 6.4 0.00 0.25 0.00 74 1016.9
20260510174553 26 40 4.8 9.7 0.00 0.25 0.00 75 1017.1
20260510173054 25 123 6.4 12.9 0.00 0.25 0.00 77 1017.3
20260510171601 25 45 6.4 14.5 0.00 0.25 0.00 78 1017.3
20260510170121 24 90 4.8 12.9 0.00 0.25 0.00 78 1017.6
20260510164604 23 360 4.8 17.7 0.00 0.56 0.00 81 1017.9
20260510163056 23 5 6.4 19.3 0.00 0.56 0.00 82 1017.8
20260510161558 23 5 6.4 14.5 0.00 0.56 0.00 82 1017.7
20260510160057 23 340 6.4 14.5 0.00 0.56 0.00 83 1017.6
20260510154600 22 55 3.2 12.9 0.00 1.37 0.00 86 1017.8
20260510153056 21 342 4.8 11.3 0.00 1.37 0.00 88 1017.8
20260510151559 21 335 3.2 8.0 0.00 1.37 0.00 90 1017.7
20260510144612 20 355 4.8 8.0 0.00 2.31 0.00 94 1018.1
20260510143056 20 19 3.2 11.3 0.00 2.31 0.00 95 1018.0
20260510141601 19 31 3.2 6.4 0.00 2.31 0.00 96 1017.8
20260510140054 19 39 3.2 8.0 0.00 2.31 0.00 96 1017.7
20260510134557 18 19 4.8 9.7 0.00 2.49 0.00 96 1017.7
20260510133100 18 44 6.4 8.0 0.00 2.49 0.00 96 1017.4
20260510131601 18 19 1.6 6.4 0.00 2.49 0.00 96 1017.4
20260510130100 18 24 3.2 6.4 0.00 2.49 0.00 96 1017.2
20260510124612 18 11 3.2 8.0 0.00 2.51 0.00 96 1017.1
20260510123128 18 336 4.8 9.7 0.00 2.51 0.00 96 1016.9
20260510121556 17 24 6.4 9.7 0.00 2.51 0.00 96 1016.6
20260510120054 17 51 4.8 8.0 0.00 2.51 0.00 96 1016.3
20260510114601 17 67 3.2 6.4 0.00 2.54 0.00 96 1016.0
20260510113055 17 74 4.8 9.7 0.00 2.54 0.00 96 1015.6
20260510111556 17 108 1.6 4.8 0.00 2.54 0.00 96 1015.5
20260510110054 17 66 1.6 4.8 0.00 2.54 0.00 96 1015.1
20260510104558 17 0 1.6 4.8 0.00 2.59 0.00 96 1015.1
20260510103055 17 38 3.2 4.8 0.00 2.59 0.00 96 1014.8
20260510101554 17 54 3.2 6.4 0.00 2.59 0.00 96 1014.5
20260510100100 17 30 3.2 6.4 0.00 2.59 0.00 96 1014.4
20260510094555 17 331 1.6 6.4 0.00 2.64 0.00 95 1014.4
20260510093102 17 352 3.2 8.0 0.00 2.64 0.00 95 1014.3
20260510091558 17 331 4.8 8.0 0.00 2.64 0.00 96 1014.2
20260510090056 17 337 3.2 4.8 0.00 2.64 0.00 95 1014.0
20260510084556 17 0 0.0 4.8 0.00 2.67 0.00 95 1013.8
20260510083105 17 320 1.6 6.4 0.00 2.67 0.00 95 1013.7
20260510081554 17 350 3.2 6.4 0.00 2.67 0.00 95 1013.6
20260510080056 18 315 4.8 8.0 0.00 2.67 0.00 95 1013.5
20260510074553 18 348 3.2 4.8 0.00 2.87 0.00 95 1013.4
20260510073106 18 63 1.6 4.8 0.00 2.87 0.00 95 1013.3
20260510071557 18 0 0.0 0.0 0.00 2.87 0.00 95 1013.6
20260510070058 18 0 0.0 0.0 0.00 2.87 0.00 95 1013.6
20260510064559 18 0 0.0 3.2 0.00 2.87 0.00 95 1013.6
20260510063056 18 112 1.6 4.8 0.00 2.87 0.00 95 1013.3
20260510061600 18 101 3.2 4.8 0.00 2.87 0.00 95 1013.1
20260510060057 18 0 0.0 3.2 0.00 2.87 0.00 95 1013.4
20260510054557 18 29 3.2 4.8 0.00 2.87 0.00 94 1013.4
20260510053053 18 0 0.0 4.8 0.00 2.87 0.00 95 1013.5
20260510051602 18 121 4.8 14.5 0.00 2.87 0.00 95 1013.4
20260510050059 18 103 6.4 11.3 0.00 2.87 0.00 95 1013.3
20260510044555 18 355 4.8 12.9 0.03 2.87 2.87 95 1014.0
20260510043055 18 334 6.4 9.7 0.03 2.87 2.87 94 1014.3
20260510041554 18 308 3.2 4.8 0.03 2.87 2.87 95 1014.4
20260510040053 19 293 3.2 8.0 0.03 2.87 2.87 95 1014.7
20260510034554 19 321 0.0 6.4 0.00 2.84 2.84 95 1014.8
20260510033119 19 96 3.2 6.4 0.00 2.84 2.84 94 1013.9
20260510031556 19 90 1.6 6.4 0.00 2.84 2.84 94 1014.0
20260510030056 19 329 0.0 3.2 0.00 2.84 2.84 94 1014.3
20260510024604 19 0 0.0 4.8 0.00 2.90 2.84 94 1014.3
20260510023055 19 100 1.6 9.7 0.00 2.90 2.84 94 1013.7
20260510021557 19 105 3.2 11.3 0.00 2.90 2.84 94 1013.5
20260510020056 19 88 3.2 6.4 0.00 2.90 2.84 94 1013.6
20260510014557 19 0 0.0 3.2 0.00 2.95 2.84 94 1014.1
20260510013055 19 0 0.0 6.4 0.00 2.95 2.84 94 1013.7
20260510011555 19 88 4.8 8.0 0.00 2.95 2.84 94 1013.4
20260510010054 19 103 0.0 4.8 0.03 2.95 2.84 94 1013.6
20260510004553 19 355 3.2 8.0 0.03 2.95 2.84 94 1013.7
20260510003103 19 0 0.0 11.3 0.03 2.95 2.84 93 1013.9
20260510001554 20 277 3.2 6.4 0.03 2.95 2.84 94 1013.9
20260510000058 20 61 3.2 6.4 0.03 2.95 2.82 94 1013.0
20260509234604 20 72 3.2 9.7 0.05 2.95 2.82 93 1012.4
20260509233057 20 264 0.0 0.0 0.10 2.95 2.82 93 1012.7
20260509231601 20 0 0.0 11.3 0.15 2.95 2.82 93 1013.0
20260509230103 20 263 4.8 12.9 0.15 2.95 2.79 93 1013.2
20260509224603 20 117 1.6 4.8 0.13 3.12 2.77 93 1012.0
20260509223102 20 107 6.4 16.1 0.08 3.07 2.72 92 1012.0
20260509221559 20 100 0.0 4.8 0.05 3.02 2.64 92 1012.8
20260509220054 20 0 0.0 4.8 0.03 2.97 2.64 92 1012.7
20260509214557 20 100 1.6 4.8 0.03 3.56 2.64 92 1012.5
20260509213108 20 53 3.2 4.8 0.03 3.56 2.64 92 1012.9
20260509211557 20 170 1.6 6.4 0.00 3.53 2.62 92 1012.7
20260509210105 20 199 0.0 3.2 0.00 3.53 2.62 92 1012.7
20260509204601 20 159 0.0 9.7 0.00 5.51 2.62 92 1011.8